Wind_Speed
15 15 15 15 16 16 16 15 16 16 17 18 18 18 19 20 20 21 23 23 24 25 26 27 28 30 32 32 32 32 33 34 35 36 37 37 38 37 39 38 38 38 39 37
16 16 15 15 16 15 15 15 15 15 15 16 16 17 17 17 18 19 21 21 23 23 25 26 27 28 28 31 31 31 32 32 34 36 37 37 38 38 38 38 37 37 38 37
16 16 15 16 16 15 15 15 15 16 15 14 15 15 15 15 17 18 19 20 20 21 22 23 24 26 27 29 30 30 30 32 33 35 36 37 37 38 38 38 37 37 38 38
17 16 15 15 16 16 15 15 15 15 16 14 15 15 14 15 16 16 17 19 19 19 20 21 22 24 26 27 28 29 30 31 33 34 35 36 36 37 38 38 38 37 38 38
17 16 15 15 16 15 15 15 15 15 15 15 15 15 14 15 15 15 16 17 18 19 20 21 21 22 24 25 26 28 30 30 31 33 34 35 36 37 38 38 38 38 38 40
17 17 16 16 15 15 15 15 16 16 16 15 14 14 15 15 14 14 15 17 18 19 21 21 21 22 23 24 26 27 29 29 30 31 33 34 36 36 37 38 38 38 38 39
18 18 18 17 16 16 16 16 16 16 16 16 15 15 14 14 14 14 15 16 17 18 20 21 22 22 23 24 25 27 28 29 29 30 32 32 34 35 37 37 37 36 36 37
20 19 19 19 18 18 17 17 17 17 17 17 16 16 14 14 14 14 15 16 17 19 20 21 22 22 23 25 25 26 26 28 29 30 31 32 33 35 35 35 36 37 37 38
21 21 20 20 20 19 18 18 18 18 18 18 16 16 15 15 14 14 15 16 17 18 20 21 22 23 24 24 25 25 26 28 29 29 30 32 33 34 35 36 37 38 39 39
22 22 21 21 21 20 20 19 18 18 19 19 18 17 16 14 14 15 16 16 17 18 20 21 22 24 25 26 26 26 26 28 29 30 30 31 33 35 35 36 38 39 40 41
23 23 23 23 22 22 21 20 19 19 20 20 20 18 18 16 15 15 17 18 18 19 20 22 23 24 25 27 27 27 29 29 29 30 31 32 33 35 36 36 38 39 40 40
24 24 24 24 23 23 23 22 21 21 20 20 20 20 19 18 17 17 17 18 18 19 20 22 23 24 25 26 27 28 28 30 31 32 32 32 33 35 37 38 38 39 40 41
25 26 26 26 25 24 24 24 23 23 22 20 20 20 21 20 19 19 19 19 20 21 21 22 22 24 25 26 27 29 30 30 31 32 33 35 36 37 38 38 39 40 41 42
28 28 28 28 27 27 26 25 24 24 24 23 21 21 21 22 21 21 21 22 22 22 23 23 24 24 25 27 29 30 31 32 32 33 35 36 37 38 38 39 40 41 42 42
31 30 30 29 28 29 28 27 26 26 25 25 24 24 23 23 23 23 23 23 23 24 24 25 25 26 26 27 29 31 32 32 33 34 35 36 38 39 40 41 42 42 42 43
32 32 32 31 30 30 30 29 28 27 27 27 27 27 26 26 26 26 26 26 26 25 25 26 27 27 28 28 29 31 32 33 34 35 36 37 38 39 41 41 42 43 44 44
33 34 34 33 32 32 31 30 29 28 28 29 29 28 28 28 28 28 28 28 27 28 28 28 28 29 29 29 30 31 33 34 35 36 38 38 39 40 40 41 42 43 44 45
36 36 36 36 35 34 32 30 30 30 29 30 30 30 30 30 30 30 30 30 30 30 30 30 30 30 30 31 32 33 33 34 35 37 38 39 40 40 40 41 42 43 44 45
37 37 37 37 36 35 33 32 31 31 30 30 30 30 30 30 30 30 31 31 31 31 31 31 31 31 31 32 33 34 34 35 36 37 37 38 39 40 40 40 41 42 44 45
38 38 38 38 38 37 35 33 32 32 32 31 30 30 30 30 30 30 31 31 31 32 32 32 33 33 34 34 35 35 36 36 37 38 38 39 39 40 40 41 43 43 45 46
38 38 38 38 38 37 36 35 34 34 34 32 32 32 32 32 32 32 32 32 32 32 33 33 34 34 35 35 36 36 37 37 38 39 39 40 40 41 42 43 44 45 46 47
39 39 39 39 39 38 37 36 36 36 35 35 34 34 34 34 34 34 34 34 34 34 35 35 36 36 37 37 37 38 38 39 39 40 41 41 42 42 43 43 44 45 46 47
39 39 39 39 38 38 38 38 38 38 38 37 36 36 36 36 36 36 36 36 36 37 37 37 38 39 39 39 39 39 40 40 41 42 42 43 43 43 44 44 45 45 46 47
40 39 39 39 38 37 37 38 38 39 39 39 38 38 37 38 37 38 38 38 38 38 39 39 39 40 40 41 41 41 42 42 42 43 43 44 44 45 45 45 45 46 46 47
41 40 40 39 38 38 38 38 38 38 39 39 39 39 39 40 40 40 40 40 40 41 41 41 41 41 41 42 42 42 43 43 43 43 43 44 44 45 45 45 45 45 46 47
41 40 40 39 38 39 39 39 39 39 39 39 40 40 40 41 41 41 42 42 42 43 42 42 43 43 42 42 42 43 43 43 43 43 44 44 44 44 44 45 45 45 46 47
Wind_Direction
313 311 309 305 304 299 293 290 286 283 279 273 271 270 269 266 264 259 255 253 251 249 246 245 245 241 239 240 240 241 241 240 239 238 239 239 240 242 240 238 238 240 241 243
312 310 309 306 307 303 294 292 288 284 283 276 271 271 273 270 267 262 257 254 252 249 248 247 244 239 238 240 241 240 242 241 238 238 240 240 241 242 243 241 242 242 242 243
312 310 306 305 309 308 300 294 289 286 285 281 274 272 274 274 271 264 257 254 252 249 247 246 244 240 241 242 242 241 241 241 240 239 240 242 243 243 245 245 244 244 244 245
312 310 306 304 307 307 303 298 291 291 288 286 280 276 274 277 275 267 260 255 250 247 247 248 249 246 244 244 244 244 242 242 243 243 242 244 246 246 247 247 247 248 248 247
311 309 306 305 309 309 306 302 296 294 294 289 283 279 278 278 275 269 264 259 253 249 247 248 251 251 247 247 247 245 245 246 245 246 247 247 248 249 249 250 249 250 251 250
310 307 304 305 308 308 307 305 302 299 298 294 290 285 280 279 278 273 267 262 257 252 248 248 250 249 249 249 246 244 247 248 248 248 248 248 249 249 250 251 251 253 254 254
308 307 304 304 307 306 305 306 307 305 304 299 294 289 284 282 277 272 270 267 261 258 255 252 250 248 248 250 249 248 250 251 251 249 248 250 251 250 249 252 254 255 256 255
306 306 304 301 301 303 303 304 305 306 306 303 298 295 292 285 278 275 273 272 267 262 259 256 254 251 252 251 253 255 253 252 252 252 253 253 254 253 252 254 256 256 257 258
303 303 302 299 298 299 301 301 301 303 303 303 301 300 297 292 284 277 274 273 272 267 262 261 260 256 255 257 257 256 256 255 254 255 257 257 255 255 255 255 256 256 257 258
298 299 298 297 296 295 297 298 299 301 301 301 301 301 300 298 293 282 277 278 275 272 268 265 263 261 259 260 260 259 263 260 258 258 261 260 257 256 257 258 259 260 261 262
294 295 295 294 294 293 294 295 294 295 296 298 298 298 297 298 294 288 283 279 276 277 274 269 264 263 264 265 264 263 263 262 261 261 261 260 258 258 259 260 262 263 263 264
291 291 292 292 291 290 290 290 289 289 291 293 295 294 292 292 292 288 285 281 279 278 276 272 268 266 266 268 266 266 266 263 262 261 260 259 260 260 260 262 263 263 263 264
286 288 290 289 289 287 286 286 285 285 286 287 291 293 292 288 290 289 285 283 281 279 277 274 271 269 268 269 268 267 268 266 264 262 261 260 261 262 262 264 266 266 266 266
281 283 285 286 287 286 285 283 282 281 282 284 286 289 290 288 287 286 285 282 281 280 278 276 273 271 271 271 270 270 269 267 265 263 263 263 263 263 264 265 267 266 267 266
279 281 282 283 283 282 281 281 279 279 280 282 283 284 286 287 286 285 284 283 281 279 278 277 275 274 274 274 272 271 270 269 268 267 266 265 265 265 266 266 266 266 267 268
277 279 280 280 280 279 277 277 277 277 278 279 279 281 283 282 283 283 283 282 281 280 279 279 278 276 275 275 274 273 271 271 270 269 269 268 267 267 268 268 268 268 269 269
274 276 278 278 278 277 276 277 276 277 278 278 278 279 281 279 279 280 281 281 282 281 280 281 281 279 278 277 275 274 274 273 271 270 270 270 270 270 269 269 269 269 270 271
272 274 276 278 277 276 278 276 276 276 277 278 278 277 278 278 279 280 280 280 281 281 282 282 282 282 281 280 278 276 276 275 273 272 272 273 273 272 271 271 271 271 271 271
270 272 273 275 276 276 275 276 276 275 276 276 277 278 278 277 277 278 279 280 282 282 283 283 283 283 282 281 280 278 277 276 275 274 274 274 274 273 272 272 272 272 272 272
268 269 271 272 273 274 274 274 274 273 273 274 276 276 277 278 277 278 278 280 281 282 282 283 283 283 283 282 280 278 277 276 276 275 275 275 274 274 273 273 273 273 273 273
266 268 269 271 272 272 273 274 273 273 273 273 274 274 275 276 278 278 279 280 281 282 282 282 282 282 282 281 281 280 277 276 276 275 275 275 275 275 274 274 274 275 275 275
266 268 269 269 270 271 271 271 271 272 272 273 273 274 275 275 276 277 277 278 279 280 280 281 281 281 281 281 281 280 279 278 277 276 276 276 277 277 276 276 276 276 276 276
266 267 268 268 269 270 270 271 271 271 271 272 273 273 274 275 276 276 276 277 278 279 279 280 280 281 281 282 281 280 279 279 278 277 277 277 276 276 276 276 276 276 277 278
265 266 266 266 266 267 267 269 270 271 271 272 272 273 273 274 275 275 276 277 278 279 279 280 281 281 281 281 281 281 280 280 279 278 278 278 277 277 277 277 277 278 278 278
264 264 264 265 265 266 266 267 268 268 269 271 273 273 274 274 275 276 277 278 279 280 281 281 282 282 282 282 281 281 280 279 279 278 278 278 278 278 278 278 278 278 278 278
264 264 264 264 264 265 266 267 268 268 269 271 272 273 275 276 276 277 279 280 280 281 282 282 283 283 283 282 282 281 281 280 280 279 279 279 280 279 279 278 277 277 277 278
Height
5740 5739 5736 5734 5732 5731 5729 5727 5725 5724 5722 5721 5720 5719 5719 5718 5718 5718 5718 5719 5720 5721 5721 5722 5724 5726 5728 5730 5733 5735 5737 5739 5742 5745 5747 5750 5754 5756 5759 5762 5765 5768 5771 5774
5738 5736 5733 5731 5728 5726 5725 5723 5722 5720 5717 5716 5715 5715 5714 5713 5713 5713 5713 5713 5714 5714 5715 5716 5718 5720 5722 5724 5726 5729 5730 5732 5734 5738 5741 5744 5747 5750 5752 5755 5758 5760 5763 5766
5734 5733 5729 5727 5725 5723 5721 5719 5718 5716 5714 5712 5712 5712 5711 5709 5708 5707 5707 5707 5708 5709 5710 5711 5713 5715 5716 5718 5720 5722 5724 5726 5728 5731 5734 5737 5740 5743 5746 5748 5751 5753 5755 5758
5730 5728 5726 5724 5722 5720 5718 5716 5714 5712 5710 5709 5708 5707 5707 5705 5704 5703 5702 5703 5704 5705 5706 5707 5708 5709 5711 5712 5714 5716 5718 5719 5721 5724 5727 5730 5733 5736 5739 5741 5744 5746 5748 5750
5727 5725 5723 5721 5719 5717 5715 5713 5711 5709 5707 5705 5704 5702 5703 5701 5700 5699 5699 5699 5700 5701 5702 5703 5704 5705 5705 5707 5708 5710 5712 5714 5716 5718 5721 5723 5726 5729 5731 5734 5736 5738 5740 5742
5725 5722 5720 5718 5716 5714 5712 5711 5709 5706 5704 5702 5700 5699 5698 5697 5696 5696 5695 5695 5695 5696 5697 5698 5699 5700 5701 5702 5704 5706 5707 5709 5710 5712 5714 5717 5719 5721 5724 5726 5729 5730 5732 5734
5722 5720 5717 5715 5713 5712 5710 5708 5706 5703 5700 5699 5697 5695 5695 5694 5693 5692 5692 5691 5691 5691 5692 5693 5695 5695 5696 5698 5699 5701 5702 5703 5705 5706 5708 5710 5712 5714 5717 5719 5721 5723 5724 5726
5718 5716 5714 5712 5710 5708 5706 5705 5703 5700 5698 5696 5694 5692 5693 5691 5689 5688 5688 5687 5687 5687 5688 5689 5690 5691 5692 5693 5694 5695 5696 5698 5699 5701 5702 5704 5706 5707 5709 5711 5713 5715 5716 5717
5713 5712 5710 5708 5706 5705 5703 5701 5699 5697 5694 5692 5690 5689 5688 5687 5686 5685 5684 5684 5683 5683 5684 5684 5685 5686 5687 5688 5689 5689 5691 5692 5693 5695 5696 5697 5698 5700 5702 5703 5704 5706 5707 5708
5709 5707 5706 5704 5702 5701 5699 5697 5696 5693 5691 5688 5687 5686 5684 5683 5682 5681 5680 5679 5679 5679 5679 5679 5680 5680 5681 5682 5683 5683 5684 5685 5686 5687 5688 5690 5691 5692 5694 5695 5696 5697 5698 5699
5703 5702 5701 5699 5697 5696 5695 5693 5690 5689 5687 5685 5683 5684 5680 5679 5677 5677 5676 5675 5674 5674 5674 5674 5674 5675 5675 5676 5677 5678 5678 5679 5679 5680 5681 5682 5683 5684 5685 5686 5687 5688 5688 5689
5697 5696 5694 5693 5692 5690 5689 5688 5686 5685 5683 5680 5678 5680 5676 5674 5673 5672 5671 5670 5670 5669 5669 5668 5669 5669 5670 5670 5670 5671 5671 5672 5672 5673 5673 5674 5675 5675 5676 5677 5678 5678 5679 5679
5691 5689 5688 5687 5687 5685 5683 5681 5680 5678 5677 5675 5674 5676 5671 5670 5668 5667 5666 5665 5664 5664 5663 5663 5662 5662 5663 5663 5663 5664 5664 5664 5664 5665 5665 5666 5666 5667 5667 5667 5668 5668 5668 5668
5683 5682 5682 5681 5679 5677 5676 5675 5673 5672 5670 5669 5669 5669 5667 5664 5663 5662 5660 5659 5659 5658 5657 5656 5656 5655 5655 5655 5655 5656 5656 5656 5656 5656 5656 5656 5657 5657 5657 5657 5657 5657 5657 5657
5675 5674 5674 5672 5671 5669 5669 5668 5666 5665 5664 5663 5663 5661 5660 5658 5656 5655 5654 5653 5652 5651 5650 5650 5649 5648 5648 5647 5647 5647 5647 5647 5647 5647 5647 5647 5647 5647 5647 5647 5647 5647 5646 5646
5665 5665 5665 5664 5663 5661 5660 5660 5659 5658 5657 5656 5655 5654 5653 5651 5649 5648 5647 5646 5645 5644 5644 5643 5642 5641 5641 5640 5639 5639 5638 5638 5638 5637 5637 5637 5636 5636 5636 5635 5635 5635 5635 5634
5656 5656 5655 5654 5654 5652 5651 5652 5651 5650 5649 5648 5646 5647 5645 5643 5642 5641 5640 5639 5638 5637 5636 5635 5634 5633 5633 5632 5631 5630 5629 5628 5628 5627 5627 5626 5625 5625 5624 5624 5624 5623 5622 5622
5646 5645 5644 5643 5644 5642 5646 5642 5642 5641 5640 5639 5637 5637 5636 5635 5634 5633 5632 5630 5630 5629 5628 5627 5626 5625 5624 5623 5622 5621 5620 5619 5618 5617 5616 5615 5614 5613 5613 5612 5612 5611 5610 5610
5635 5635 5633 5632 5631 5631 5633 5633 5632 5631 5631 5629 5628 5627 5626 5625 5625 5625 5623 5622 5621 5620 5619 5618 5617 5615 5614 5613 5612 5611 5610 5608 5607 5606 5605 5604 5603 5602 5601 5600 5599 5598 5598 5597
5624 5623 5623 5622 5620 5620 5623 5622 5621 5621 5620 5620 5618 5618 5617 5616 5616 5616 5614 5613 5612 5610 5609 5608 5607 5605 5604 5603 5601 5600 5599 5597 5596 5595 5593 5592 5591 5590 5589 5588 5587 5585 5584 5584
5612 5611 5611 5610 5609 5609 5612 5611 5610 5611 5611 5610 5608 5608 5607 5607 5606 5606 5604 5603 5602 5601 5599 5598 5596 5595 5593 5592 5590 5589 5587 5586 5585 5583 5582 5580 5579 5578 5576 5575 5574 5572 5571 5570
5600 5600 5600 5599 5599 5602 5600 5599 5600 5599 5598 5598 5597 5597 5597 5596 5595 5595 5594 5593 5592 5590 5589 5587 5585 5584 5582 5580 5579 5578 5576 5574 5573 5571 5570 5568 5567 5565 5563 5562 5560 5559 5558 5556
5587 5588 5588 5589 5590 5589 5588 5587 5587 5587 5587 5586 5586 5586 5586 5585 5584 5584 5583 5581 5580 5579 5577 5575 5574 5572 5570 5568 5567 5565 5564 5562 5560 5559 5557 5555 5554 5552 5550 5548 5547 5545 5544 5542
5575 5575 5575 5576 5576 5576 5576 5575 5575 5575 5575 5574 5574 5574 5574 5573 5573 5572 5571 5569 5568 5567 5565 5563 5561 5560 5558 5556 5554 5552 5551 5549 5547 5546 5544 5542 5540 5538 5536 5535 5533 5532 5530 5528
5563 5563 5563 5563 5564 5564 5564 5563 5563 5563 5563 5562 5562 5562 5561 5561 5560 5559 5558 5557 5556 5554 5552 5551 5549 5547 5545 5543 5541 5539 5537 5536 5534 5532 5530 5528 5526 5524 5523 5521 5519 5518 5516 5514
5550 5551 5550 5551 5552 5551 5552 5551 5551 5551 5551 5551 5550 5550 5549 5548 5547 5546 5545 5544 5542 5541 5539 5538 5536 5534 5532 5530 5528 5526 5524 5522 5521 5519 5517 5515 5513 5511 5509 5507 5506 5503 5502 5500